Weather History for Chippewa, MI

Change the Weather History Date:

Thursday, February 21, 2013

  Actual Average Record
Temperature  
Mean Temperature 12 °F -  
Max Temperature 24 °F 32 °F 48 °F (1983)
Min Temperature 1 °F 12 °F -18 °F (1993)
Degree Days  
Heating Degree Days 52    
Moisture  
Dew Point 5 °F    
Average Humidity 85    
Maximum Humidity 100    
Minimum Humidity 59    
Precipitation  
Precipitation 0.00 in - - ()
Sea Level Pressure  
Sea Level Pressure 30.36 in    
Wind  
Wind Speed 6 mph (North)    
Max Wind Speed 10 mph    
Max Gust Speed -    
Visibility 10 miles    
Events      
Averages and records for this station are not official NWS values.
T = Trace of Precipitation, MM = Missing Value Source: NWS Daily Summary

Daily Weather History Graph

Daily Weather History Graph

Search for Another Location

Airport:

Trip Planner

Search our weather history database for the weather conditions in past years. The results will help you decide how hot, cold, wet, or windy it might be!

Date:

Astronomy

Feb. 21, 2013 Rise Set
Actual Time 7:30 AM EST 6:12 PM EST
Civil Twilight 7:00 AM EST 6:43 PM EST
Nautical Twilight 6:25 AM EST 7:18 PM EST
Astronomical Twilight 5:50 AM EST 7:53 PM EST
Moon 2:18 PM EST (2/21) 4:44 AM EST (2/21)
Length of Visible Light 11h 43m
Length of Day
10h 42m
Waxing Gibbous, 83% of the Moon is Illuminated
Feb 21
Waxing Gibbous
Feb 25
Full
Mar 4
Last Quarter
Mar 11
New
Mar 19
First Quarter

Hourly Weather History & Observations

Time (EST) Temp. Windchill Dew Point Humidity Pressure Visibility Wind Dir Wind Speed Gust Speed Precip Events Conditions
12:15 AM 5.0 °F -10.0 °F 1.4 °F 85% 30.26 in 10.0 mi North 10.4 mph - N/A   Overcast
12:35 AM 5.0 °F -10.0 °F 1.4 °F 85% 30.27 in 10.0 mi North 10.4 mph - N/A   Overcast
12:55 AM 5.0 °F -9.1 °F 1.4 °F 85% 30.27 in 10.0 mi North 9.2 mph - N/A   Overcast
1:15 AM 3.2 °F -11.3 °F -0.4 °F 85% 30.28 in 10.0 mi North 9.2 mph - N/A   Overcast
1:35 AM 3.2 °F -7.8 °F -0.4 °F 85% 30.28 in 10.0 mi North 5.8 mph - N/A   Mostly Cloudy
1:55 AM 3.2 °F - -0.4 °F 85% 30.29 in 10.0 mi Calm Calm - N/A   Mostly Cloudy
2:15 AM 3.2 °F -4.2 °F -0.4 °F 85% 30.28 in 10.0 mi North 3.5 mph - N/A   Mostly Cloudy
2:35 AM 3.2 °F -6.2 °F -0.4 °F 85% 30.29 in 10.0 mi North 4.6 mph - N/A   Overcast
2:55 AM 3.2 °F -6.2 °F -0.4 °F 85% 30.29 in 10.0 mi North 4.6 mph - N/A   Overcast
3:15 AM 3.2 °F -9.1 °F -0.4 °F 85% 30.29 in 10.0 mi North 6.9 mph - N/A   Overcast
3:35 AM 1.4 °F -8.3 °F -0.4 °F 92% 30.29 in 10.0 mi North 4.6 mph - N/A   Overcast
3:55 AM 1.4 °F -13.5 °F -0.4 °F 92% 30.29 in 10.0 mi North 9.2 mph - N/A   Overcast
4:15 AM 1.4 °F -13.5 °F -0.4 °F 92% 30.30 in 10.0 mi North 9.2 mph - N/A   Overcast
4:35 AM 1.4 °F -11.3 °F -0.4 °F 92% 30.31 in 10.0 mi North 6.9 mph - N/A   Overcast
4:55 AM 3.2 °F -10.3 °F -0.4 °F 85% 30.31 in 10.0 mi North 8.1 mph - N/A   Overcast
5:15 AM 3.2 °F -10.3 °F -0.4 °F 85% 30.32 in 10.0 mi North 8.1 mph - N/A   Mostly Cloudy
5:35 AM 3.2 °F -12.2 °F -0.4 °F 85% 30.33 in 10.0 mi North 10.4 mph - N/A   Overcast
5:55 AM 1.4 °F -9.9 °F -0.4 °F 92% 30.34 in 10.0 mi North 5.8 mph - N/A   Overcast
6:15 AM 1.4 °F -6.2 °F -0.4 °F 92% 30.35 in 10.0 mi NW 3.5 mph - N/A   Overcast
6:35 AM 1.4 °F -11.3 °F -0.4 °F 92% 30.35 in 10.0 mi North 6.9 mph - N/A   Overcast
6:55 AM 1.4 °F -8.3 °F -0.4 °F 92% 30.36 in 10.0 mi North 4.6 mph - N/A   Overcast
7:15 AM 1.4 °F -9.9 °F -0.4 °F 92% 30.37 in 10.0 mi North 5.8 mph - N/A   Overcast
7:35 AM 1.4 °F -8.3 °F -0.4 °F 92% 30.38 in 10.0 mi North 4.6 mph - N/A   Scattered Clouds
7:55 AM 1.4 °F -9.9 °F -0.4 °F 92% 30.39 in 10.0 mi North 5.8 mph - N/A   Clear
8:15 AM 1.4 °F -9.9 °F -0.4 °F 92% 30.40 in 10.0 mi North 5.8 mph - N/A   Mostly Cloudy
8:35 AM 1.4 °F -9.9 °F -0.4 °F 92% 30.40 in 10.0 mi NNW 5.8 mph - N/A   Mostly Cloudy
8:55 AM 3.2 °F -6.2 °F -0.4 °F 85% 30.41 in 10.0 mi NNW 4.6 mph - N/A   Partly Cloudy
9:15 AM 6.8 °F -5.9 °F 1.4 °F 79% 30.42 in 10.0 mi NNW 8.1 mph - N/A   Scattered Clouds
9:35 AM 6.8 °F -6.9 °F 1.4 °F 79% 30.42 in 7.0 mi NNW 9.2 mph - N/A   Mostly Cloudy
9:55 AM 8.6 °F -3.7 °F 3.2 °F 79% 30.42 in 10.0 mi NNW 8.1 mph - N/A   Mostly Cloudy
10:15 AM 8.6 °F -4.7 °F 1.4 °F 73% 30.41 in 10.0 mi NNW 9.2 mph - N/A   Overcast
10:35 AM 8.6 °F -3.7 °F 3.2 °F 79% 30.40 in 10.0 mi North 8.1 mph - N/A   Overcast
10:55 AM 8.6 °F -2.6 °F 3.2 °F 79% 30.38 in 3.0 mi North 6.9 mph - N/A   Overcast
11:15 AM 10.4 °F 0.8 °F 3.2 °F 73% 30.38 in 10.0 mi North 5.8 mph - N/A   Scattered Clouds
11:35 AM 10.4 °F -0.4 °F 5.0 °F 79% 30.37 in 10.0 mi NNE 6.9 mph - N/A   Clear
11:55 AM 10.4 °F -1.5 °F 5.0 °F 79% 30.36 in 10.0 mi North 8.1 mph - N/A   Clear
12:15 PM 12.2 °F 0.7 °F 6.8 °F 79% 30.36 in 10.0 mi NE 8.1 mph - N/A   Clear
12:35 PM 12.2 °F - 6.8 °F 79% 30.39 in 10.0 mi Calm Calm - N/A   Partly Cloudy
12:55 PM 17.6 °F - 10.4 °F 73% 30.40 in 10.0 mi Calm Calm - N/A   Partly Cloudy
1:15 PM 17.6 °F 10.7 °F 8.6 °F 68% 30.38 in 10.0 mi West 4.6 mph - N/A   Clear
1:35 PM 19.4 °F 8.6 °F 10.4 °F 68% 30.39 in 10.0 mi WSW 9.2 mph - N/A   Partly Cloudy
1:55 PM 17.6 °F 12.3 °F 10.4 °F 73% 30.40 in 10.0 mi West 3.5 mph - N/A   Mostly Cloudy
2:15 PM 21.2 °F 16.4 °F 12.2 °F 68% 30.41 in 7.0 mi West 3.5 mph - N/A   Overcast
2:35 PM 23.0 °F - 12.2 °F 63% 30.40 in 10.0 mi Calm Calm - N/A   Mostly Cloudy
2:55 PM 24.8 °F 20.5 °F 12.2 °F 59% 30.40 in 10.0 mi NNE 3.5 mph - N/A   Partly Cloudy
3:15 PM 21.2 °F - 12.2 °F 68% 30.40 in 10.0 mi Calm Calm - N/A   Partly Cloudy
3:35 PM 23.0 °F 13.9 °F 14.0 °F 68% 30.40 in 10.0 mi NNW 8.1 mph - N/A   Mostly Cloudy
3:55 PM 19.4 °F 10.4 °F 12.2 °F 74% 30.40 in 10.0 mi North 6.9 mph - N/A   Scattered Clouds
4:15 PM 17.6 °F 8.2 °F 12.2 °F 79% 30.39 in 10.0 mi North 6.9 mph - N/A   Clear
4:35 PM 17.6 °F 6.4 °F 12.2 °F 79% 30.38 in 10.0 mi North 9.2 mph - N/A   Clear
4:55 PM 17.6 °F 5.7 °F 12.2 °F 79% 30.37 in 10.0 mi North 10.4 mph - N/A   Clear
5:15 PM 17.6 °F 9.3 °F 12.2 °F 79% 30.36 in 10.0 mi North 5.8 mph - N/A   Clear
5:35 PM 17.6 °F 7.3 °F 14.0 °F 86% 30.36 in 0.8 mi North 8.1 mph - N/A   Unknown
5:55 PM 17.6 °F 12.3 °F 12.2 °F 79% 30.37 in 10.0 mi North 3.5 mph - N/A   Clear
6:15 PM 15.8 °F - 10.4 °F 79% 30.38 in 10.0 mi Calm Calm - N/A   Clear
6:35 PM 14.0 °F - 10.4 °F 86% 30.40 in 10.0 mi Calm Calm - N/A   Clear
6:55 PM 12.2 °F - 8.6 °F 85% 30.39 in 10.0 mi Calm Calm - N/A   Clear
7:15 PM 10.4 °F 2.2 °F 10.4 °F 100% 30.38 in 10.0 mi NNW 4.6 mph - N/A   Clear
7:35 PM 10.4 °F - 10.4 °F 100% 30.38 in 10.0 mi Calm Calm - N/A   Clear
7:55 PM 10.4 °F - 8.6 °F 92% 30.38 in 10.0 mi Calm Calm - N/A   Clear
8:15 PM 10.4 °F - 10.4 °F 100% 30.37 in 10.0 mi Calm Calm - N/A   Clear
8:35 PM 10.4 °F - 8.6 °F 92% 30.38 in 10.0 mi Calm Calm - N/A   Clear
8:55 PM 10.4 °F 0.8 °F 8.6 °F 92% 30.36 in 10.0 mi North 5.8 mph - N/A   Clear
9:15 PM 12.2 °F 2.9 °F 12.2 °F 100% 30.35 in 10.0 mi North 5.8 mph - N/A   Clear
9:35 PM 12.2 °F 2.9 °F 10.4 °F 92% 30.35 in 10.0 mi North 5.8 mph - N/A   Clear
9:55 PM 10.4 °F - 10.4 °F 100% 30.35 in 10.0 mi Calm Calm - N/A   Clear
10:15 PM 10.4 °F 4.0 °F 10.4 °F 100% 30.35 in 10.0 mi NE 3.5 mph - N/A   Clear
10:35 PM 10.4 °F - 10.4 °F 100% 30.35 in 10.0 mi Calm Calm - N/A   Clear
10:55 PM 10.4 °F - 8.6 °F 92% 30.36 in 10.0 mi Calm Calm - N/A   Clear
11:15 PM 8.6 °F - 6.8 °F 92% 30.36 in 10.0 mi Calm Calm - N/A   Clear
11:35 PM 8.6 °F - 6.8 °F 92% 30.36 in 10.0 mi Calm Calm - N/A   Clear
11:55 PM 8.6 °F -2.6 °F 6.8 °F 92% 30.34 in 10.0 mi ENE 6.9 mph - N/A   Clear